EW1993 Weather Reports


Display with metric or nautical units.
time (UTC)temp
F
wind
direction
speed
MPH
gust
MPH
rain 1hr
in
rain 24hr
in
rain mn
in
humidity
%
barometer
mb
20190219021605 41 132 0.0 3.0 0.00 0.00 0.00 93 1017.4
20190219014608 42 356 2.0 5.0 0.00 0.04 0.00 93 1017.3
20190219011605 42 98 0.0 4.0 0.00 0.04 0.00 94 1017.3
20190219004600 42 64 0.0 3.0 0.00 0.04 0.00 92 1017.1
20190219001600 42 66 0.0 3.0 0.00 0.04 0.00 91 1017.0
20190218234555 43 251 2.0 4.0 0.00 0.04 0.04 91 1016.7
20190218231552 42 23 0.0 2.0 0.00 0.04 0.04 91 1016.6
20190218224540 43 19 1.0 4.0 0.00 0.04 0.04 88 1016.5
20190218221528 43 346 1.0 4.0 0.00 0.04 0.04 89 1016.3
20190218214529 43 34 1.0 4.0 0.00 0.04 0.04 89 1016.3
20190218211515 41 65 0.0 2.0 0.00 0.04 0.04 91 1016.0
20190218204512 41 1 0.0 3.0 0.00 0.04 0.04 86 1016.1
20190218201510 44 40 0.0 4.0 0.00 0.04 0.04 81 1015.6
20190218194510 44 22 0.0 3.0 0.00 0.04 0.04 81 1015.4
20190218191502 45 60 0.0 3.0 0.00 0.04 0.04 78 1015.3
20190218184500 46 323 0.0 4.0 0.00 0.04 0.04 73 1015.0
20190218181429 48 12 0.0 4.0 0.00 0.04 0.04 71 1014.5
20190218174422 49 277 1.0 4.0 0.00 0.04 0.04 70 1014.2
20190218171420 50 323 1.0 5.0 0.00 0.04 0.04 65 1013.8
20190218164419 51 344 2.0 6.0 0.00 0.04 0.04 63 1013.6
20190218161418 52 49 2.0 5.0 0.00 0.04 0.04 68 1013.5
20190218154419 53 287 2.0 6.0 0.00 0.04 0.04 71 1013.4
20190218151420 53 235 2.0 7.0 0.00 0.04 0.04 69 1013.3
20190218144420 54 19 2.0 5.0 0.00 0.04 0.04 71 1013.2
20190218141414 52 350 2.0 6.0 0.00 0.04 0.04 75 1013.1
20190218134411 51 162 2.0 8.0 0.00 0.04 0.04 75 1013.3
20190218131411 50 303 3.0 8.0 0.00 0.04 0.04 78 1013.4
20190218124411 52 252 1.0 6.0 0.00 0.04 0.04 78 1013.4
20190218121411 52 23 2.0 6.0 0.00 0.04 0.04 81 1013.6
20190218114412 52 300 2.0 6.0 0.00 0.04 0.04 82 1013.3
20190218111412 52 271 2.0 6.0 0.00 0.04 0.04 83 1013.4
20190218104410 52 53 2.0 4.0 0.00 0.04 0.04 88 1013.4
20190218101411 50 270 1.0 4.0 0.00 0.04 0.04 92 1013.3
20190218094418 49 138 0.0 4.0 0.00 0.04 0.04 97 1013.3
20190218091412 47 1 1.0 6.0 0.00 0.04 0.04 98 1013.5
20190218084412 46 221 0.0 4.0 0.00 0.04 0.04 99 1013.4
20190218081409 45 336 0.0 1.0 0.00 0.04 0.04 98 1013.4
20190218074407 45 327 0.0 2.0 0.00 0.04 0.04 97 1013.1
20190218071359 45 307 0.0 2.0 0.00 0.04 0.04 98 1012.9
20190218064355 45 101 0.0 3.0 0.00 0.04 0.04 98 1012.7
20190218061352 44 280 0.0 2.0 0.00 0.04 0.04 97 1012.8
20190218054345 45 29 0.0 2.0 0.00 0.04 0.04 95 1012.9
20190218051334 46 74 0.0 2.0 0.00 0.04 0.04 94 1012.8
20190218044331 46 66 1.0 4.0 0.00 0.04 0.04 95 1012.7
20190218041324 46 99 0.0 4.0 0.00 0.04 0.04 97 1012.8
20190218034320 47 65 0.0 1.0 0.00 0.04 0.04 96 1013.0
20190218031317 47 65 0.0 2.0 0.00 0.04 0.04 95 1013.2
20190218024314 48 71 2.0 5.0 0.04 0.04 0.04 95 1013.4